Weather History for Monroe, WI

Change the Weather History Date:

Saturday, November 12, 2011

  Actual Average Record
Temperature  
Mean Temperature 42 °F -  
Max Temperature 53 °F 0 °F 62 °F (2005)
Min Temperature 32 °F - 15 °F (1997)
Degree Days  
Heating Degree Days 22    
Moisture  
Dew Point 35 °F    
Average Humidity 72    
Maximum Humidity 100    
Minimum Humidity 54    
Precipitation  
Precipitation 0.00 in - - ()
Sea Level Pressure  
Sea Level Pressure 29.65 in    
Wind  
Wind Speed 12 mph (South)    
Max Wind Speed 26 mph    
Max Gust Speed 34 mph    
Visibility 10 miles    
Events      
Averages and records for this station are not official NWS values.
T = Trace of Precipitation, MM = Missing Value Source: NWS Daily Summary

Daily Weather History Graph

Daily Weather History Graph

Search for Another Location

Airport:

Trip Planner

Search our weather history database for the weather conditions in past years. The results will help you decide how hot, cold, wet, or windy it might be!

Date:

Astronomy

Nov. 12, 2011 Rise Set
Actual Time 6:45 AM CST 4:38 PM CST
Civil Twilight 6:15 AM CST 5:08 PM CST
Nautical Twilight 5:41 AM CST 5:42 PM CST
Astronomical Twilight 5:08 AM CST 6:15 PM CST
Moon 5:52 PM CST (11/12) 8:30 AM CST (11/12)
Length of Visible Light 10h 53m
Length of Day
9h 53m
Full, 97% of the Moon is Illuminated
Nov 12
Full
Nov 18
Last Quarter
Nov 25
New
Dec 2
First Quarter
Dec 10
Full

Hourly Weather History & Observations

Time (CST) Temp. Windchill Dew Point Humidity Pressure Visibility Wind Dir Wind Speed Gust Speed Precip Events Conditions
12:15 AM 37.4 °F 29.8 °F 32.0 °F 81% 29.69 in 10.0 mi SW 11.5 mph - N/A   Clear
12:35 AM 35.6 °F 27.5 °F 32.0 °F 87% 29.69 in 10.0 mi SW 11.5 mph - N/A   Clear
12:55 AM 37.4 °F 30.3 °F 32.0 °F 81% 29.68 in 10.0 mi SW 10.4 mph - N/A   Clear
1:15 AM 35.6 °F 28.6 °F 32.0 °F 87% 29.69 in 10.0 mi SW 9.2 mph - N/A   Clear
1:35 AM 35.6 °F 28.0 °F 32.0 °F 87% 29.69 in 10.0 mi SW 10.4 mph - N/A   Clear
1:55 AM 33.8 °F 26.4 °F 32.0 °F 93% 29.68 in 10.0 mi SSW 9.2 mph - N/A   Clear
2:15 AM 33.8 °F 25.8 °F 32.0 °F 93% 29.69 in 10.0 mi SSW 10.4 mph - N/A   Clear
2:35 AM 33.8 °F 25.3 °F 32.0 °F 93% 29.68 in 10.0 mi SSW 11.5 mph - N/A   Clear
2:55 AM 33.8 °F 25.8 °F 32.0 °F 93% 29.69 in 10.0 mi SSW 10.4 mph - N/A   Clear
3:15 AM 33.8 °F 25.3 °F 32.0 °F 93% 29.68 in 10.0 mi SSW 11.5 mph - N/A   Clear
3:55 AM 33.8 °F 26.4 °F 32.0 °F 93% 29.69 in 10.0 mi SSW 9.2 mph - N/A   Clear
4:15 AM 35.6 °F 28.6 °F 32.0 °F 87% 29.69 in 10.0 mi SSW 9.2 mph - N/A   Clear
4:35 AM 33.8 °F 26.4 °F 32.0 °F 93% 29.69 in 10.0 mi SSW 9.2 mph - N/A   Clear
4:55 AM 33.8 °F 25.8 °F 32.0 °F 93% 29.69 in 10.0 mi SSW 10.4 mph - N/A   Clear
5:15 AM 33.8 °F 26.4 °F 32.0 °F 93% 29.69 in 10.0 mi SSW 9.2 mph - N/A   Clear
5:35 AM 35.6 °F 28.0 °F 32.0 °F 87% 29.70 in 10.0 mi SSW 10.4 mph - N/A   Clear
5:55 AM 33.8 °F 25.8 °F 32.0 °F 93% 29.70 in 10.0 mi SSW 10.4 mph - N/A   Clear
6:15 AM 33.8 °F 27.0 °F 32.0 °F 93% 29.71 in 10.0 mi SSW 8.1 mph - N/A   Clear
6:35 AM 32.0 °F 24.2 °F 32.0 °F 100% 29.70 in 10.0 mi SSW 9.2 mph - N/A   Clear
7:15 AM 33.8 °F 26.4 °F 32.0 °F 93% 29.71 in 10.0 mi SSW 9.2 mph - N/A   Clear
7:35 AM 35.6 °F 29.2 °F 32.0 °F 87% 29.71 in 10.0 mi SSW 8.1 mph - N/A   Clear
7:55 AM 35.6 °F 26.6 °F 32.0 °F 87% 29.72 in 10.0 mi South 13.8 mph - N/A   Clear
8:15 AM 37.4 °F 29.3 °F 32.0 °F 81% 29.73 in 10.0 mi South 12.7 mph - N/A   Clear
8:35 AM 37.4 °F 29.3 °F 32.0 °F 81% 29.72 in 10.0 mi South 12.7 mph - N/A   Clear
9:15 AM 41.0 °F 33.1 °F 33.8 °F 76% 29.72 in 10.0 mi South 15.0 mph - N/A   Clear
9:35 AM 42.8 °F 37.0 °F 33.8 °F 70% 29.72 in 10.0 mi SSW 10.4 mph 19.6 mph N/A   Clear
9:55 AM 44.6 °F 38.1 °F 35.6 °F 71% 29.73 in 10.0 mi SSW 13.8 mph 18.4 mph N/A   Clear
10:15 AM 46.4 °F 40.1 °F 35.6 °F 66% 29.73 in 10.0 mi SSW 15.0 mph 19.6 mph N/A   Clear
10:35 AM 46.4 °F 40.4 °F 35.6 °F 66% 29.72 in 10.0 mi SSW 13.8 mph 20.7 mph N/A   Clear
10:55 AM 48.2 °F - 35.6 °F 62% 29.72 in 10.0 mi SSW 13.8 mph - N/A   Clear
11:15 AM 50.0 °F - 37.4 °F 62% 29.71 in 10.0 mi South 10.4 mph - N/A   Clear
11:35 AM 51.8 °F - 37.4 °F 58% 29.70 in 10.0 mi South 17.3 mph 23.0 mph N/A   Clear
11:55 AM 51.8 °F - 39.2 °F 62% 29.69 in 10.0 mi South 15.0 mph 18.4 mph N/A   Clear
12:15 PM 51.8 °F - 37.4 °F 58% 29.68 in 10.0 mi South 16.1 mph - N/A   Clear
12:35 PM 53.6 °F - 37.4 °F 54% 29.68 in 10.0 mi South 18.4 mph - N/A   Clear
12:55 PM 53.6 °F - 37.4 °F 54% 29.67 in 10.0 mi South 18.4 mph 23.0 mph N/A   Clear
1:15 PM 53.6 °F - 37.4 °F 54% 29.66 in 10.0 mi South 16.1 mph - N/A   Clear
1:35 PM 51.8 °F - 37.4 °F 58% 29.65 in 10.0 mi South 12.7 mph - N/A   Clear
1:55 PM 53.6 °F - 37.4 °F 54% 29.64 in 10.0 mi South 12.7 mph - N/A   Clear
2:15 PM 53.6 °F - 37.4 °F 54% 29.63 in 10.0 mi SSE 12.7 mph - N/A   Clear
2:35 PM 53.6 °F - 37.4 °F 54% 29.62 in 10.0 mi SSE 15.0 mph - N/A   Clear
2:55 PM 53.6 °F - 37.4 °F 54% 29.62 in 10.0 mi South 17.3 mph 20.7 mph N/A   Clear
3:15 PM 53.6 °F - 37.4 °F 54% 29.61 in 10.0 mi South 12.7 mph 20.7 mph N/A   Clear
3:35 PM 53.6 °F - 37.4 °F 54% 29.61 in 10.0 mi SSE 12.7 mph - N/A   Clear
3:55 PM 51.8 °F - 37.4 °F 58% 29.61 in 10.0 mi SSE 11.5 mph - N/A   Clear
4:15 PM 51.8 °F - 37.4 °F 58% 29.60 in 10.0 mi SSE 10.4 mph - N/A   Clear
4:35 PM 50.0 °F - 37.4 °F 62% 29.59 in 10.0 mi SSE 10.4 mph - N/A   Clear
4:55 PM 50.0 °F - 35.6 °F 58% 29.58 in 10.0 mi SSE 12.7 mph - N/A   Clear
5:15 PM 50.0 °F - 35.6 °F 58% 29.57 in 10.0 mi SSE 10.4 mph - N/A   Clear
5:35 PM 50.0 °F - 35.6 °F 58% 29.55 in 10.0 mi SSE 16.1 mph - N/A   Clear
5:55 PM 50.0 °F - 37.4 °F 62% 29.54 in 10.0 mi South 19.6 mph 24.2 mph N/A   Clear
6:15 PM 50.0 °F - 37.4 °F 62% 29.54 in 10.0 mi South 18.4 mph 24.2 mph N/A   Clear
6:35 PM 50.0 °F - 37.4 °F 62% 29.54 in 10.0 mi South 19.6 mph 26.5 mph N/A   Clear
6:55 PM 50.0 °F - 37.4 °F 62% 29.53 in 10.0 mi South 18.4 mph 24.2 mph N/A   Clear
7:35 PM 51.8 °F - 35.6 °F 54% 29.53 in 10.0 mi South 26.5 mph 31.1 mph N/A   Clear
7:55 PM 50.0 °F - 35.6 °F 58% 29.53 in 10.0 mi South 24.2 mph 29.9 mph N/A   Clear
8:15 PM 51.8 °F - 35.6 °F 54% 29.52 in 10.0 mi South 25.3 mph 34.5 mph N/A   Clear
8:35 PM 50.0 °F - 35.6 °F 58% 29.53 in 10.0 mi South 26.5 mph 34.5 mph N/A   Scattered Clouds
8:55 PM 50.0 °F - 35.6 °F 58% 29.52 in 10.0 mi South 25.3 mph 33.4 mph N/A   Scattered Clouds
9:15 PM 50.0 °F - 37.4 °F 62% 29.51 in 10.0 mi South 24.2 mph 35.7 mph N/A   Mostly Cloudy
9:35 PM 50.0 °F - 37.4 °F 62% 29.51 in 10.0 mi South 25.3 mph 35.7 mph N/A   Overcast
9:55 PM 50.0 °F - 39.2 °F 66% 29.49 in 10.0 mi South 25.3 mph 34.5 mph N/A   Mostly Cloudy
10:15 PM 50.0 °F - 39.2 °F 66% 29.48 in 10.0 mi South 23.0 mph 31.1 mph N/A   Scattered Clouds
10:35 PM 50.0 °F - 41.0 °F 71% 29.47 in 10.0 mi South 24.2 mph 31.1 mph N/A   Scattered Clouds
10:55 PM 50.0 °F - 41.0 °F 71% 29.46 in 10.0 mi South 23.0 mph 28.8 mph N/A   Scattered Clouds
11:15 PM 50.0 °F - 41.0 °F 71% 29.45 in 10.0 mi South 21.9 mph 27.6 mph N/A   Clear
11:35 PM 50.0 °F - 41.0 °F 71% 29.45 in 10.0 mi South 20.7 mph 28.8 mph N/A   Clear
11:55 PM 50.0 °F - 41.0 °F 71% 29.45 in 10.0 mi South 19.6 mph 26.5 mph N/A   Clear